When you browse on this site, cookies collect data to enhance your experience and personalize the content and advertising you see.
Visit our Privacy Policy to learn more. By continuing to use the site, you agree to this use of cookies and data.
  • In France
  • List of Countries
  • For 7 days
  • Water Temperature
  • Weather Map
  • Weather Widgets
  • user-avatar
    Login

    Hourly Weather Bamenda

    Today, 2 April, Thursday

    Time Temperature Precipitation Wind Pressure Humidity
    00:00 +20°C° 1.2 mm 1 mps 641 mmHg 90%
    01:00 +20°C° 0 mm 1 mps 641 mmHg 89%
    02:00 +20°C° 0.6 mm 1 mps 640 mmHg 90%
    03:00 +20°C° 0.6 mm 1 mps 640 mmHg 91%
    04:00 +20°C° 0.6 mm 1 mps 639 mmHg 92%
    05:00 +20°C° 0 mm 1 mps 639 mmHg 90%
    06:00 +20°C° 0 mm 1 mps 640 mmHg 89%
    07:00 +21°C° 0 mm 1 mps 641 mmHg 87%
    08:00 +23°C° 0 mm 1 mps 641 mmHg 79%
    09:00 +25°C° 0 mm 1 mps 642 mmHg 71%
    10:00 +28°C° 0 mm 1 mps 643 mmHg 63%
    11:00 +28°C° 0.5 mm 1 mps 643 mmHg 61%
    12:00 +29°C° 0.5 mm 1 mps 642 mmHg 59%
    13:00 +29°C° 0.5 mm 1 mps 642 mmHg 57%
    14:00 +28°C° 0.7 mm 1 mps 641 mmHg 59%
    15:00 +28°C° 0.7 mm 1 mps 640 mmHg 61%
    16:00 +27°C° 0.7 mm 2 mps 639 mmHg 63%
    17:00 +26°C° 0.6 mm 1 mps 639 mmHg 71%
    18:00 +24°C° 0.6 mm 1 mps 639 mmHg 78%
    19:00 +21°C° 0.6 mm 0 mps 639 mmHg 86%
    20:00 +22°C° 0 mm 1 mps 639 mmHg 87%
    21:00 +22°C° 0 mm 1 mps 640 mmHg 89%
    22:00 +22°C° 0 mm 1 mps 640 mmHg 90%
    23:00 +21°C° 0.1 mm 1 mps 640 mmHg 91%

    Tomorrow, 3 April, Friday

    Time Temperature Precipitation Wind Pressure Humidity
    00:00 +21°C° 0.1 mm 1 mps 640 mmHg 92%
    01:00 +21°C° 0.1 mm 1 mps 640 mmHg 93%
    02:00 +21°C° 0.3 mm 1 mps 640 mmHg 92%
    03:00 +21°C° 0.3 mm 1 mps 639 mmHg 91%
    04:00 +21°C° 0.3 mm 1 mps 639 mmHg 91%
    05:00 +21°C° 0.1 mm 1 mps 639 mmHg 91%
    06:00 +21°C° 0.1 mm 1 mps 640 mmHg 92%
    07:00 +21°C° 0.1 mm 1 mps 640 mmHg 92%
    08:00 +22°C° 0.3 mm 1 mps 641 mmHg 87%
    09:00 +24°C° 0.3 mm 1 mps 642 mmHg 81%
    10:00 +26°C° 0.3 mm 1 mps 642 mmHg 76%
    11:00 +27°C° 0.5 mm 1 mps 642 mmHg 71%
    12:00 +28°C° 0.5 mm 1 mps 642 mmHg 66%
    13:00 +29°C° 0.5 mm 1 mps 642 mmHg 61%
    14:00 +28°C° 1 mm 1 mps 641 mmHg 63%
    15:00 +28°C° 1 mm 1 mps 640 mmHg 65%
    16:00 +27°C° 1 mm 1 mps 639 mmHg 66%
    17:00 +26°C° 0.3 mm 1 mps 639 mmHg 74%
    18:00 +24°C° 0.3 mm 1 mps 639 mmHg 82%
    19:00 +23°C° 0.3 mm 1 mps 638 mmHg 89%
    20:00 +22°C° 0.8 mm 1 mps 639 mmHg 90%
    21:00 +22°C° 0.8 mm 1 mps 640 mmHg 90%
    22:00 +22°C° 0.8 mm 1 mps 641 mmHg 91%
    23:00 +21°C° 1.2 mm 1 mps 641 mmHg 89%

    Day after tomorrow, 4 April, Saturday

    Time Temperature Precipitation Wind Pressure Humidity
    00:00 +21°C° 1.2 mm 1 mps 640 mmHg 87%
    01:00 +21°C° 1.2 mm 1 mps 640 mmHg 85%
    02:00 +21°C° 0 mm 1 mps 640 mmHg 84%
    03:00 +21°C° 0 mm 1 mps 639 mmHg 83%
    04:00 +21°C° 0 mm 1 mps 639 mmHg 82%
    05:00 +21°C° 0 mm 1 mps 639 mmHg 82%
    06:00 +21°C° 0 mm 1 mps 639 mmHg 83%
    07:00 +19°C° 0 mm 0 mps 640 mmHg 83%
    08:00 +21°C° 0 mm 0 mps 641 mmHg 78%
    09:00 +24°C° 0 mm 1 mps 642 mmHg 73%
    10:00 +26°C° 0 mm 1 mps 643 mmHg 68%
    11:00 +27°C° 0.3 mm 1 mps 643 mmHg 65%
    12:00 +28°C° 0.3 mm 1 mps 643 mmHg 61%
    13:00 +29°C° 0.3 mm 1 mps 642 mmHg 58%
    14:00 +28°C° 0.9 mm 1 mps 642 mmHg 62%
    15:00 +27°C° 0.9 mm 2 mps 641 mmHg 66%
    16:00 +26°C° 0.9 mm 2 mps 640 mmHg 70%
    17:00 +25°C° 0.7 mm 2 mps 640 mmHg 77%
    18:00 +24°C° 0.7 mm 2 mps 640 mmHg 84%
    19:00 +22°C° 0.7 mm 1 mps 640 mmHg 90%
    20:00 +22°C° 0.7 mm 1 mps 641 mmHg 91%
    21:00 +22°C° 0.7 mm 1 mps 641 mmHg 92%
    22:00 +22°C° 0.7 mm 1 mps 642 mmHg 93%
    23:00 +21°C° 1.6 mm 1 mps 642 mmHg 93%

    5 April, Sunday

    Time Temperature Precipitation Wind Pressure Humidity
    00:00 +21°C° 1.6 mm 1 mps 642 mmHg 92%
    01:00 +21°C° 1.6 mm 1 mps 642 mmHg 92%
    02:00 +21°C° 0.1 mm 1 mps 641 mmHg 92%
    03:00 +21°C° 0.1 mm 1 mps 640 mmHg 92%
    04:00 +20°C° 0.1 mm 1 mps 639 mmHg 92%
    05:00 +21°C° 0 mm 1 mps 640 mmHg 92%
    06:00 +21°C° 0 mm 1 mps 640 mmHg 91%
    07:00 +19°C° 0 mm 0 mps 641 mmHg 91%
    08:00 +21°C° 0 mm 0 mps 642 mmHg 83%
    09:00 +25°C° 0 mm 1 mps 643 mmHg 75%
    10:00 +27°C° 0 mm 1 mps 644 mmHg 67%
    11:00 +27°C° 0.7 mm 1 mps 643 mmHg 64%
    12:00 +28°C° 0.7 mm 1 mps 643 mmHg 62%
    13:00 +29°C° 0.7 mm 1 mps 642 mmHg 60%
    14:00 +28°C° 1.1 mm 1 mps 642 mmHg 63%
    15:00 +27°C° 1.1 mm 1 mps 641 mmHg 65%
    16:00 +27°C° 1.1 mm 1 mps 640 mmHg 68%
    17:00 +26°C° 0.8 mm 1 mps 640 mmHg 74%
    18:00 +24°C° 0.8 mm 1 mps 640 mmHg 80%
    19:00 +23°C° 0.8 mm 1 mps 639 mmHg 86%
    20:00 +22°C° 0.3 mm 1 mps 640 mmHg 87%
    21:00 +22°C° 0.3 mm 1 mps 641 mmHg 88%
    22:00 +20°C° 0.3 mm 0 mps 642 mmHg 89%
    23:00 +21°C° 0.9 mm 1 mps 641 mmHg 90%

    6 April, Monday

    Time Temperature Precipitation Wind Pressure Humidity
    00:00 +21°C° 0.9 mm 1 mps 641 mmHg 91%
    01:00 +21°C° 0.9 mm 1 mps 641 mmHg 91%
    02:00 +21°C° 0 mm 1 mps 640 mmHg 89%
    03:00 +21°C° 0 mm 1 mps 640 mmHg 87%
    04:00 +21°C° 0 mm 1 mps 640 mmHg 85%
    05:00 +21°C° 0 mm 1 mps 640 mmHg 83%
    06:00 +21°C° 0 mm 1 mps 640 mmHg 80%
    07:00 +19°C° 0 mm 0 mps 641 mmHg 77%
    08:00 +23°C° 0 mm 1 mps 641 mmHg 74%
    09:00 +24°C° 0 mm 1 mps 642 mmHg 70%
    10:00 +26°C° 0 mm 1 mps 643 mmHg 66%
    11:00 +26°C° 0 mm 1 mps 643 mmHg 63%
    12:00 +27°C° 0 mm 1 mps 642 mmHg 60%
    13:00 +26°C° 0 mm 0 mps 642 mmHg 57%
    14:00 +26°C° 0.7 mm 0 mps 641 mmHg 60%
    15:00 +27°C° 0.7 mm 1 mps 641 mmHg 62%
    16:00 +27°C° 0.7 mm 1 mps 640 mmHg 65%
    17:00 +23°C° 0.2 mm 0 mps 640 mmHg 71%
    18:00 +22°C° 0.2 mm 0 mps 640 mmHg 76%
    19:00 +21°C° 0.2 mm 0 mps 640 mmHg 82%
    20:00 +21°C° 0 mm 0 mps 640 mmHg 83%
    21:00 +20°C° 0 mm 0 mps 641 mmHg 85%
    22:00 +22°C° 0 mm 1 mps 641 mmHg 87%
    23:00 +20°C° 0.3 mm 0 mps 641 mmHg 88%

    7 April, Tuesday

    Time Temperature Precipitation Wind Pressure Humidity
    00:00 +19°C° 0.3 mm 0 mps 641 mmHg 89%
    01:00 +19°C° 0.3 mm 0 mps 640 mmHg 90%
    02:00 +19°C° 0.4 mm 0 mps 640 mmHg 90%
    03:00 +19°C° 0.4 mm 0 mps 640 mmHg 90%
    04:00 +21°C° 0.4 mm 1 mps 639 mmHg 89%
    05:00 +19°C° 0.2 mm 0 mps 640 mmHg 89%
    06:00 +19°C° 0.2 mm 0 mps 640 mmHg 88%
    07:00 +19°C° 0.2 mm 0 mps 641 mmHg 88%
    08:00 +21°C° 0.6 mm 0 mps 641 mmHg 82%
    09:00 +22°C° 0.6 mm 0 mps 642 mmHg 77%
    10:00 +24°C° 0.6 mm 0 mps 643 mmHg 71%
    11:00 +26°C° 0.9 mm 1 mps 643 mmHg 70%
    12:00 +27°C° 0.9 mm 1 mps 642 mmHg 68%
    13:00 +27°C° 0.9 mm 1 mps 642 mmHg 67%
    14:00 +26°C° 0.8 mm 1 mps 641 mmHg 70%
    15:00 +26°C° 0.8 mm 1 mps 640 mmHg 73%
    16:00 +25°C° 0.8 mm 1 mps 639 mmHg 76%
    17:00 +24°C° 0.5 mm 1 mps 639 mmHg 81%
    18:00 +23°C° 0.5 mm 1 mps 639 mmHg 86%
    19:00 +22°C° 0.5 mm 1 mps 639 mmHg 90%
    20:00 +22°C° 0.1 mm 1 mps 639 mmHg 91%
    21:00 +19°C° 0.1 mm 0 mps 640 mmHg 91%
    22:00 +19°C° 0.1 mm 0 mps 640 mmHg 91%
    23:00 +19°C° 0.4 mm 0 mps 640 mmHg 91%
    Show more